RH
40 40 30 29 17 8 6 6 11 16 14 20 18 24 34 66 70 71 90 97 100 92 84 97 100 100 82 51 77 100 100 99 100 92 84 49 43 62 31 17 15 9 6 11 13 15 16
16 44 39 31 23 10 6 6 8 16 18 15 24 20 20 28 73 68 85 99 100 98 96 87 93 99 94 73 98 98 99 100 92 98 99 53 49 64 29 20 16 14 9 10 13 15 16
2 23 47 37 31 16 8 6 6 12 21 18 19 26 20 20 42 71 64 87 74 93 90 84 82 100 100 100 100 100 100 100 99 100 92 36 76 62 35 21 16 18 16 11 12 15 16
3 3 37 46 34 29 10 8 6 8 17 24 18 25 25 20 28 84 77 80 95 88 94 90 98 85 97 96 97 94 100 100 92 89 89 39 32 61 36 24 20 21 21 16 12 13 14
4 3 6 49 45 34 25 9 8 6 10 24 25 19 30 21 18 65 86 81 78 90 95 99 79 87 98 99 94 100 97 100 100 98 62 48 45 68 41 27 24 22 21 18 16 12 12
7 4 3 12 53 43 36 22 9 8 7 14 28 19 18 21 17 29 77 85 89 85 73 100 86 96 93 80 100 97 99 98 95 93 67 71 81 68 49 33 27 22 18 17 18 17 16
6 6 4 3 24 53 39 41 24 9 8 7 21 29 16 13 17 17 41 65 100 85 100 76 90 100 85 82 89 100 96 99 100 90 82 83 78 73 65 49 36 27 22 18 18 17 16
7 5 5 3 3 41 52 37 44 24 9 8 10 29 21 16 14 16 22 45 66 82 75 84 72 92 100 100 100 100 98 89 89 76 71 70 64 64 72 69 64 60 49 35 31 21 17
7 5 4 4 3 5 50 52 39 45 24 9 8 13 32 18 15 15 21 28 41 70 72 72 79 71 80 99 96 99 99 87 72 56 43 43 44 50 56 54 51 46 42 40 35 32 28
9 5 4 3 3 3 8 53 53 41 47 27 9 8 19 27 17 18 19 29 30 39 58 82 91 84 71 99 96 87 84 94 69 56 42 38 32 23 22 23 22 19 18 16 15 14 13
9 5 4 4 4 4 4 16 52 55 46 48 26 9 9 26 24 19 23 29 33 32 47 74 96 94 91 87 100 86 76 83 95 93 53 37 33 30 24 23 23 22 24 24 24 25 26
12 5 5 4 4 4 4 5 21 48 58 53 49 32 10 9 26 24 20 24 33 40 38 57 76 91 83 78 72 91 86 79 85 60 48 40 34 37 36 39 39 38 36 36 34 32 28
24 6 5 5 5 5 5 5 6 21 44 58 60 50 35 10 9 25 27 21 30 35 33 41 55 64 77 78 69 53 70 82 72 74 64 59 57 56 53 51 46 44 42 36 30 29 28
27 9 6 5 5 5 6 6 6 6 19 38 53 62 50 43 12 9 25 30 17 29 30 29 39 52 65 74 68 68 49 44 61 64 63 56 39 49 40 38 34 26 23 21 18 22 18
37 21 9 6 6 6 7 7 8 7 7 15 32 45 61 54 48 23 9 14 28 21 23 31 34 31 47 66 79 72 56 44 34 37 42 36 30 19 18 14 17 16 12 11 8 6 5
40 35 18 10 7 7 7 8 9 9 8 7 11 27 37 54 55 50 38 11 10 24 34 21 21 31 38 39 53 68 68 54 45 35 25 20 23 19 17 13 13 15 13 10 7 6 6
50 32 39 23 13 8 8 9 10 10 10 9 8 13 25 32 42 52 52 47 22 9 14 27 35 26 16 26 29 35 48 57 59 50 37 24 19 18 13 11 11 10 8 7 7 6 6
48 46 30 39 26 14 9 9 9 10 10 11 11 10 13 24 28 32 43 52 48 46 15 9 12 25 33 34 20 14 17 26 37 46 52 47 35 25 21 15 12 10 9 9 8 10 11
53 46 47 31 40 32 21 11 9 10 10 12 12 14 16 16 27 30 29 39 51 54 46 44 15 9 9 18 29 33 31 21 14 13 16 27 37 40 34 33 32 24 17 15 12 8 8
63 55 50 57 42 38 43 33 17 10 12 13 16 18 20 26 26 24 24 27 32 40 55 55 45 40 17 10 9 11 18 21 26 29 28 25 18 16 17 16 20 14 10 12 12 15 20
83 67 63 64 66 47 36 34 28 21 16 18 23 29 31 31 35 34 31 23 29 27 27 38 54 53 41 43 28 11 9 9 9 8 9 12 14 16 16 17 17 17 14 13 11 11 7
76 86 72 69 70 65 58 41 35 37 40 42 42 42 46 43 41 39 34 34 24 24 27 24 21 34 54 54 38 38 41 24 12 10 10 10 8 7 7 6 6 5 6 6 6 6 6
61 70 79 79 76 72 75 66 58 65 69 64 62 62 58 68 55 36 37 33 35 30 23 25 22 16 15 44 54 54 45 37 40 40 29 20 15 11 10 10 9 9 9 9 9 9 8
63 65 69 73 70 73 79 76 74 77 79 81 76 74 69 74 64 35 30 33 36 37 30 21 28 27 27 22 26 44 54 56 49 42 39 40 42 38 36 32 27 27 25 24 28 23 22
68 65 56 61 72 72 69 71 72 72 68 68 66 70 72 73 71 49 33 34 33 34 30 19 24 34 37 30 32 36 33 48 58 59 54 50 45 44 40 35 37 39 41 41 45 49 48
68 71 71 58 53 61 62 69 73 68 68 64 60 62 60 66 70 72 57 44 47 36 23 17 18 27 38 45 49 48 40 47 42 54 67 67 67 64 58 52 48 49 51 53 52 53 57
56 54 64 72 72 65 62 64 67 70 70 71 63 60 58 55 62 62 69 71 68 62 57 48 38 38 42 52 58 58 58 59 56 56 62 72 82 91 90 69 68 66 64 61 61 62 62
68 61 58 59 62 64 64 67 71 72 75 76 75 63 59 54 55 62 64 62 63 68 74 76 71 70 76 80 80 80 78 74 71 71 76 74 78 86 96 94 90 99 96 94 85 80 85
74 65 64 69 67 62 60 63 69 82 80 76 77 66 58 57 57 60 66 64 64 64 60 58 60 63 61 64 62 61 68 75 80 77 78 86 98 95 100 99 96 86 93 93 93 100 100
Wind_Speed
38 40 41 42 44 47 49 52 55 55 53 51 42 41 45 47 42 44 41 31 36 26 19 19 19 26 36 35 27 19 14 46 42 40 60 70 65 66 65 63 60 59 56 51 46 45 43
38 39 40 42 42 45 47 49 52 55 54 51 50 41 43 49 46 40 43 36 26 29 21 17 21 24 26 28 9 13 10 40 54 43 57 69 63 65 63 62 60 55 53 50 49 46 45
38 38 39 41 42 42 45 47 50 54 54 52 52 46 41 42 49 36 41 38 29 22 33 36 37 46 29 21 16 12 16 29 41 51 60 66 64 63 64 61 59 53 51 50 49 47 45
37 39 39 40 42 42 42 45 48 51 55 54 53 53 45 40 45 40 43 37 38 28 29 39 20 21 23 19 15 20 21 29 38 43 60 64 60 58 55 54 53 50 48 48 48 46 45
36 38 40 40 41 42 41 43 46 48 52 55 53 51 48 40 40 44 34 39 35 33 23 22 20 22 20 17 16 23 31 45 50 48 57 53 55 52 49 49 48 46 45 46 44 44 43
35 37 39 39 40 41 42 42 43 46 49 53 54 52 52 40 35 44 38 37 33 33 29 23 19 21 11 12 21 33 34 44 43 43 47 49 48 45 46 45 42 43 45 43 41 40 39
34 35 37 38 38 40 41 42 42 43 46 49 52 52 51 47 34 37 40 35 31 29 26 22 18 12 5 9 20 29 38 35 36 40 41 42 43 41 41 38 39 39 37 38 35 37 37
33 34 35 37 37 37 40 41 42 43 44 47 49 50 50 48 39 30 31 37 33 27 23 25 20 11 13 12 23 32 36 35 34 38 39 37 35 34 33 33 34 34 36 36 36 36 36
32 32 32 35 36 36 36 39 41 42 42 43 46 48 47 46 44 34 30 30 33 31 26 22 20 16 9 11 25 29 36 32 37 37 39 36 33 32 31 30 28 27 29 29 29 30 29
30 30 30 31 35 36 35 36 38 40 41 41 42 44 46 44 42 39 32 27 26 29 32 27 18 15 14 14 23 26 25 33 28 33 37 36 33 29 26 25 23 22 21 21 21 22 23
28 28 28 27 30 33 34 33 34 37 38 40 40 40 42 43 40 36 33 32 29 23 30 30 24 16 16 16 16 21 24 24 25 28 31 33 30 25 24 22 21 21 20 20 21 22 24
25 27 27 27 27 30 32 32 32 33 35 37 38 38 38 39 40 37 35 29 27 27 26 27 28 23 16 18 17 15 19 21 23 25 25 26 30 30 27 26 25 25 25 26 27 29 30
24 25 25 26 26 27 30 30 30 30 31 33 35 36 36 35 36 38 36 32 28 29 21 21 25 25 23 15 19 17 15 20 21 24 23 24 25 25 26 26 27 27 28 27 27 28 29
23 23 24 24 24 24 26 28 28 28 28 29 31 33 34 34 32 34 35 33 32 29 28 23 25 23 22 21 16 13 17 16 17 22 24 24 23 25 26 26 26 25 25 24 23 21 19
24 24 23 23 22 22 22 25 26 27 27 27 27 30 30 31 32 31 32 29 33 30 25 21 19 20 19 18 16 15 12 14 17 18 21 22 23 24 25 25 24 22 21 19 18 19 20
26 24 22 22 22 20 19 22 25 25 26 27 26 26 25 27 29 30 28 26 27 29 28 22 19 18 17 16 15 15 15 13 11 14 18 19 21 22 23 22 21 21 21 20 21 23 24
27 26 22 21 21 22 20 19 22 24 24 26 26 25 24 23 25 26 26 26 24 23 23 24 23 20 16 14 14 12 11 12 12 9 11 15 19 19 20 20 20 21 22 23 24 26 28
26 25 25 22 21 21 22 21 21 23 24 24 25 24 24 24 22 22 23 24 24 22 19 18 18 19 19 18 15 11 10 9 6 7 9 10 13 15 17 19 20 21 22 24 27 26 22
26 26 24 25 25 23 22 21 22 20 21 23 24 24 23 23 22 20 19 20 20 19 19 17 15 14 13 12 12 12 11 10 8 5 2 3 7 10 12 14 17 19 22 23 24 23 20
27 28 28 24 25 27 26 25 22 22 21 21 22 24 24 22 23 21 21 16 16 17 17 16 15 13 11 10 8 7 5 5 5 5 4 3 4 5 7 10 12 16 17 18 18 16 19
33 30 29 30 26 25 27 26 26 24 24 24 23 24 27 25 24 24 21 20 15 14 14 15 14 13 12 10 8 7 7 6 5 5 5 6 7 9 10 12 12 15 16 19 19 20 25
30 34 34 33 32 29 27 27 27 26 26 26 27 25 27 28 27 25 24 21 21 17 15 15 14 14 13 11 12 10 9 10 11 12 12 13 13 15 16 17 19 20 21 25 24 24 25
34 31 31 33 34 33 31 30 29 29 30 29 29 29 29 30 29 28 25 23 21 22 18 17 17 17 17 15 14 14 14 15 14 16 18 18 19 19 19 24 25 19 23 28 29 29 30
35 34 32 31 32 33 33 31 30 31 31 30 30 29 29 29 27 28 28 25 23 22 23 22 19 20 20 20 20 18 19 20 20 20 21 22 25 26 24 28 29 27 28 29 29 31 32
43 40 38 37 33 34 34 34 32 32 31 29 29 30 30 30 31 28 26 25 25 25 24 24 23 23 22 23 23 22 23 23 25 24 26 29 29 31 31 30 34 31 33 35 36 35 37
49 48 46 43 42 38 37 38 37 34 32 31 31 31 32 31 32 32 30 28 26 25 27 29 29 29 30 29 29 27 28 26 30 29 28 31 36 37 38 38 39 36 38 40 42 41 39
53 53 55 52 48 45 43 41 42 41 38 35 35 34 31 31 30 33 34 33 33 31 31 32 34 34 36 35 34 34 33 33 33 33 34 37 40 42 45 46 43 41 43 45 45 47 47
56 56 56 57 57 55 50 48 44 46 45 43 41 38 36 33 33 32 34 37 38 37 36 33 35 37 39 39 38 36 35 35 36 38 37 42 44 45 45 50 49 49 50 48 49 50 49
63 65 61 58 60 62 60 56 53 50 49 52 50 46 42 41 39 38 38 40 40 43 40 39 40 39 36 36 37 36 36 35 36 38 36 41 41 44 43 43 45 49 48 49 51 49 51
Wind_Direction
21 21 19 19 19 18 18 19 16 16 17 19 13 13 11 13 15 20 21 19 24 40 55 62 129 157 177 184 182 147 144 177 193 195 188 193 190 188 188 194 200 201 203 207 206 207 211
20 20 19 19 21 17 18 18 18 17 19 20 22 12 11 12 20 37 32 29 36 50 67 86 111 145 159 167 146 183 165 173 193 197 180 189 190 188 185 192 197 200 202 204 206 210 214
18 18 19 17 20 19 17 17 18 18 19 21 24 22 18 14 18 37 31 40 41 77 68 83 119 119 107 106 116 167 169 174 177 181 175 183 187 189 185 190 195 198 202 204 208 211 216
13 15 16 18 18 19 18 17 18 18 18 22 23 26 23 23 21 29 42 41 43 46 68 79 91 106 120 76 92 156 173 182 186 179 176 184 186 188 185 188 193 197 201 204 209 213 217
11 11 13 16 18 19 18 17 18 19 19 20 24 27 25 29 24 30 37 40 53 63 51 67 93 122 124 64 86 147 164 163 163 169 175 179 182 185 187 186 191 197 203 207 210 217 222
8 7 9 13 15 18 18 17 18 20 21 20 22 26 29 30 31 32 36 39 45 66 58 61 104 120 131 61 100 129 140 149 150 160 170 173 177 182 184 187 191 197 204 208 213 218 224
4 4 4 9 14 14 19 17 17 20 22 22 22 24 28 33 36 36 35 40 48 56 64 58 77 125 124 137 109 130 134 143 146 157 160 165 172 178 183 186 190 195 205 211 218 223 229
357 360 1 3 10 13 15 18 18 18 22 24 25 25 27 32 36 40 38 41 47 49 53 67 69 83 120 135 136 139 139 141 152 160 159 159 165 174 180 188 193 201 205 212 219 227 233
351 354 358 358 2 10 12 15 18 20 20 23 26 26 28 30 35 39 47 44 42 51 58 65 73 78 96 127 145 144 144 151 157 157 150 151 160 169 176 183 188 200 208 216 223 230 237
345 347 354 357 358 2 10 12 16 20 22 23 25 27 27 30 34 39 43 43 45 43 51 61 73 85 100 120 146 145 149 155 152 159 154 153 157 163 167 172 179 184 191 203 214 223 232
336 341 348 354 355 358 4 9 13 18 23 24 24 27 29 29 34 39 40 42 45 50 51 54 60 86 110 121 131 148 150 155 158 161 161 156 161 166 172 179 186 193 202 212 223 231 238
330 334 340 348 352 354 358 5 9 14 21 26 26 25 30 30 32 39 40 39 44 53 56 48 57 65 91 126 138 151 154 159 159 164 166 166 166 173 181 189 197 205 213 220 228 234 240
326 329 335 340 346 350 353 359 7 9 16 22 28 27 27 31 31 35 40 42 48 52 64 57 61 67 74 86 131 143 160 168 170 173 177 174 175 182 189 197 205 212 218 224 230 237 241
320 320 327 335 340 346 349 355 0 6 8 16 24 28 28 28 30 36 36 38 44 54 60 61 66 67 71 79 95 129 151 166 180 181 181 180 180 186 190 196 202 207 211 217 223 229 237
314 314 321 328 335 339 347 350 355 360 4 7 14 24 26 27 28 32 39 31 39 47 55 60 61 63 70 75 83 105 122 160 174 184 187 183 182 188 192 197 200 207 212 220 230 242 249
310 307 312 321 327 331 340 346 348 353 357 2 6 15 18 24 26 29 35 31 36 39 46 52 56 59 61 63 71 88 108 120 146 182 189 194 194 198 203 207 212 219 226 235 244 251 256
304 304 301 309 316 322 329 335 339 343 352 354 358 3 5 15 19 24 27 29 32 37 38 39 46 56 61 70 76 71 83 104 117 144 181 200 202 209 216 223 229 234 241 248 254 257 256
291 297 299 296 302 309 317 323 329 334 338 345 348 353 355 359 8 10 18 21 25 29 33 34 34 36 49 60 65 75 82 77 85 114 141 170 196 211 215 223 227 230 236 241 243 250 254
283 283 292 298 294 297 302 309 315 322 327 332 339 342 346 348 351 351 360 9 15 18 21 26 27 26 26 33 52 64 73 86 99 110 140 187 208 204 213 214 219 222 227 229 236 238 237
278 280 283 288 295 293 295 300 304 308 314 319 325 330 333 337 335 338 339 347 354 3 4 8 13 15 15 12 9 12 30 58 70 92 119 142 177 207 223 232 237 239 235 236 234 235 239
275 274 275 282 283 288 294 297 301 305 308 311 316 319 319 325 325 325 327 326 330 333 341 351 351 355 355 352 345 335 322 307 287 264 259 256 255 253 250 251 252 254 256 256 255 255 256
273 274 275 278 281 281 282 286 293 298 302 306 310 310 312 312 315 317 317 317 314 312 315 318 324 332 327 325 325 323 314 306 299 287 276 269 259 254 257 256 255 253 262 265 265 265 266
266 270 272 276 277 279 283 284 287 294 296 299 301 305 309 309 305 308 308 307 307 305 302 304 306 307 309 309 304 303 299 295 292 290 289 287 279 271 270 269 264 261 258 263 267 271 270
267 266 269 270 272 276 279 280 283 287 293 294 295 299 300 307 302 304 304 301 298 298 297 299 300 300 303 300 297 296 290 288 287 286 287 285 282 280 276 275 276 278 273 270 269 267 268
264 266 270 268 268 271 275 277 278 281 284 290 295 295 295 296 300 297 299 300 299 295 290 292 295 296 297 297 298 296 291 286 280 280 284 284 283 283 279 276 277 277 277 278 277 277 277
267 269 265 266 267 266 270 272 273 273 275 277 284 293 297 295 292 293 293 293 295 293 290 289 291 295 298 298 297 295 291 287 283 279 274 275 281 280 280 278 278 278 279 281 282 282 283
254 262 267 266 265 265 263 266 269 269 269 268 275 279 284 295 288 287 290 291 292 290 288 287 287 288 288 290 291 292 291 290 285 280 277 271 275 281 278 276 274 276 276 277 279 280 281
258 258 257 262 266 268 268 267 268 268 267 272 271 271 274 278 281 282 283 285 288 288 289 289 292 292 291 288 291 289 287 291 287 283 276 274 274 276 278 275 277 279 278 276 277 278 279
261 264 260 258 258 262 265 266 265 266 266 271 273 270 271 273 274 275 277 280 282 283 283 285 287 290 290 292 292 292 293 293 292 291 286 280 278 277 277 278 279 278 281 279 278 279 279